Location: Unspecified
(51.0950°N, 12.9690°E)
Time: 22:42:42
(UTC+00:00)

COSMOS 2428 - Pass Details

Date: 28 October 2021
Orbit: 845 x 857 km, 70.9° (Epoch: 01 December)

Event Time Altitude Azimuth Distance (km) Brightness Sun altitude
Rises 16:55:06 0° 158° (SSE) 3,392 5.7 -10.9°
Reaches altitude 10° 16:58:16 10° 140° (SE) 2,463 4.8 -11.3°
Maximum altitude 17:01:58 18° 99° (E) 1,956 4.0 -11.9°
Enters shadow 17:03:28 16° 80° (E) 2,053 4.0 -12.2°
